Tracking 31028 objects as of 17-Jul-2025
HD Live streaming from Space Station
objects crossing your sky now

OBJECT AG

Track OBJECT AG now!
10-day predictions


NORAD ID: 57034
Int'l Code: 2023-085AG
Perigee: 385.7 km
Apogee: 392.1 km
Inclination: 97.5 °
Period: 92.2 minutes
Semi major axis: 6759 km
RCS: Unknown
Launch date: June 15, 2023
Source: People's Republic of China (PRC)
Launch site: Taiyaun Space Center, China (TSC)
Your satellite tracking list
Your tracking list is empty




NASA's NSSDC Master Catalog

Two Line Element Set (TLE):
1 57034U 23085AG  25198.18933649  .00085284  00000-0  96835-3 0  9996
2 57034  97.4750 314.6955 0004724 140.9088 219.2511 15.62055261116296
Source of the keplerian elements: AFSPC